,,PA_Meas_PMT16A,,PR_Meas_QMR101_102,,RH_Meas_QMH101,,SR_Meas_QMS101,,TA_Meas_QMH101,,GenWind,,GenWind,
time,status,PA,status,PR,status,RH,status,SR,status,TA,status,DirAvg,status,SpdAvg,
2016-05-25, 07:23:04,VALID,917.549,VALID,0,INVALID,112.186,VALID,80.4734,VALID,20.0749,VALID,101,VALID,0,
2016-05-25, 07:24:04,VALID,917.581,VALID,0,INVALID,112.179,VALID,82.8371,VALID,20.0733,VALID,101,VALID,0,
2016-05-25, 07:25:04,VALID,917.603,VALID,0,INVALID,112.217,VALID,85.0934,VALID,20.1139,VALID,101,VALID,0,
2016-05-25, 07:26:04,VALID,917.659,VALID,0,INVALID,112.354,VALID,86.9199,VALID,20.1529,VALID,64,VALID,0,
2016-05-25, 07:27:04,VALID,917.66,VALID,0,INVALID,112.163,VALID,88.8538,VALID,20.1334,VALID,61,VALID,0,
2016-05-25, 07:28:04,VALID,917.669,VALID,0,INVALID,111.706,VALID,90.5729,VALID,20.1724,VALID,65,VALID,0,
2016-05-25, 07:29:04,VALID,917.691,VALID,0,INVALID,111.309,VALID,92.0771,VALID,20.2504,VALID,70,VALID,0,
2016-05-25, 07:30:04,VALID,917.673,VALID,0,INVALID,110.707,VALID,93.3664,VALID,20.3089,VALID,77,VALID,0,
2016-05-25, 07:31:04,VALID,917.673,VALID,0,INVALID,110.296,VALID,94.4408,VALID,20.4064,VALID,77,VALID,0,
2016-05-25, 07:32:04,VALID,917.706,VALID,0,INVALID,109.739,VALID,95.4077,VALID,20.504,VALID,77,VALID,0,
2016-05-25, 07:33:04,VALID,917.715,VALID,0,VALID,104,VALID,96.2673,VALID,20.6015,VALID,77,VALID,0,
2016-05-25, 07:34:04,VALID,917.721,VALID,0,VALID,104,VALID,97.3417,VALID,20.699,VALID,77,VALID,0,
2016-05-25, 07:35:04,VALID,917.716,VALID,0,INVALID,109.137,VALID,99.0607,VALID,20.7771,VALID,135,VALID,0,
2016-05-25, 07:36:04,VALID,917.746,VALID,0,INVALID,109.472,VALID,101.854,VALID,20.7365,VALID,136,VALID,0,
2016-05-25, 07:37:04,VALID,917.761,VALID,0,INVALID,109.831,VALID,104.11,VALID,20.717,VALID,136,VALID,0,
2016-05-25, 07:38:04,VALID,917.781,VALID,0,INVALID,110.372,VALID,106.582,VALID,20.7381,VALID,148,VALID,0,
2016-05-25, 07:39:04,VALID,917.785,VALID,0,INVALID,110.189,VALID,109.697,VALID,20.7381,VALID,148,VALID,0,
2016-05-25, 07:40:04,VALID,917.795,VALID,0,INVALID,110.143,VALID,113.243,VALID,20.795,VALID,142,VALID,0,
2016-05-25, 07:41:04,VALID,917.806,VALID,0,INVALID,109.945,VALID,117.326,VALID,20.8746,VALID,138,VALID,0,
2016-05-25, 07:42:04,VALID,917.764,VALID,0,INVALID,110.189,VALID,122.161,VALID,20.9527,VALID,130,VALID,0,
2016-05-25, 07:43:04,VALID,917.818,VALID,0,INVALID,110.768,VALID,125.921,VALID,21.0291,VALID,130,VALID,0,
2016-05-25, 07:44:04,VALID,917.775,VALID,0,INVALID,110.25,VALID,132.582,VALID,21.0486,VALID,130,VALID,0,
2016-05-25, 07:45:04,VALID,917.803,VALID,0,INVALID,110.059,VALID,128.177,VALID,21.1282,VALID,137,VALID,0,
2016-05-25, 07:46:04,VALID,917.849,VALID,0,INVALID,109.724,VALID,128.5,VALID,21.1657,VALID,154,VALID,0,
2016-05-25, 07:47:04,VALID,917.848,VALID,0,INVALID,109.808,VALID,130.111,VALID,21.2242,VALID,181,VALID,0,
2016-05-25, 07:48:04,VALID,917.871,VALID,0,VALID,104,VALID,131.508,VALID,21.1868,VALID,189,VALID,1.30117,
2016-05-25, 07:49:04,VALID,917.878,VALID,0,VALID,104,VALID,134.624,VALID,21.1071,VALID,181,VALID,0.857813,
2016-05-25, 07:50:04,VALID,917.892,VALID,0,VALID,104,VALID,139.136,VALID,21.0096,VALID,174,VALID,0.353125,
2016-05-25, 07:51:04,VALID,917.895,VALID,0,VALID,104,VALID,148.161,VALID,20.9706,VALID,164,VALID,0.000390625,
2016-05-25, 07:52:04,VALID,917.905,VALID,0,VALID,104,VALID,162.666,VALID,20.8925,VALID,155,VALID,0,
2016-05-25, 07:53:04,VALID,917.896,VALID,0,VALID,104,VALID,197.692,VALID,20.795,VALID,153,VALID,0,
2016-05-25, 07:54:04,VALID,917.904,VALID,0,VALID,104,VALID,246.255,VALID,20.795,VALID,147,VALID,0,
2016-05-25, 07:55:04,VALID,917.903,VALID,0,INVALID,109.465,VALID,310.935,VALID,20.8941,VALID,151,VALID,0,
2016-05-25, 07:56:04,VALID,917.914,VALID,0,VALID,104,VALID,318.563,VALID,21.0096,VALID,138,VALID,0,
2016-05-25, 07:57:04,VALID,917.913,VALID,0,VALID,104,VALID,316.737,VALID,21.2047,VALID,137,VALID,0,
2016-05-25, 07:58:04,VALID,917.915,VALID,0,VALID,104,VALID,299.546,VALID,21.4193,VALID,111,VALID,0,
2016-05-25, 07:59:04,VALID,917.928,VALID,0,VALID,104,VALID,262.801,VALID,21.6534,VALID,120,VALID,0,
2016-05-25, 08:00:04,VALID,917.932,VALID,0,VALID,103.579,VALID,322.431,VALID,21.8681,VALID,119,VALID,0.210547,
2016-05-25, 08:01:04,VALID,917.95,VALID,0,VALID,103.77,VALID,355.2,VALID,22.0827,VALID,120,VALID,0,
2016-05-25, 08:02:04,VALID,917.956,VALID,0,VALID,103.823,VALID,361.002,VALID,22.2779,VALID,131,VALID,0,
2016-05-25, 08:03:04,VALID,917.966,VALID,0,VALID,103.038,VALID,358.316,VALID,22.5121,VALID,130,VALID,0,
2016-05-25, 08:04:04,VALID,917.998,VALID,0,VALID,86.602,VALID,347.25,VALID,22.7072,VALID,122,VALID,0,
2016-05-25, 08:05:04,VALID,917.985,VALID,0,VALID,82.8437,VALID,369.275,VALID,22.8829,VALID,149,VALID,0,
2016-05-25, 08:06:04,VALID,918.001,VALID,0,VALID,83.6289,VALID,381.846,VALID,23.0391,VALID,138,VALID,0,
2016-05-25, 08:07:04,VALID,918.011,VALID,0,VALID,79.5885,VALID,371.746,VALID,23.0976,VALID,160,VALID,0,
2016-05-25, 08:08:04,VALID,918.043,VALID,0,VALID,79.6876,VALID,364.44,VALID,23.1349,VALID,137,VALID,0,
2016-05-25, 08:09:04,VALID,918.025,VALID,0,VALID,82.4472,VALID,369.168,VALID,23.0763,VALID,137,VALID,0,
2016-05-25, 08:10:04,VALID,918.033,VALID,0,VALID,79.8705,VALID,332.423,VALID,22.9983,VALID,152,VALID,0.0117188,
2016-05-25, 08:11:04,VALID,918.038,VALID,0,VALID,80.4042,VALID,311.794,VALID,22.7836,VALID,153,VALID,0.463672,
2016-05-25, 08:12:04,VALID,918.048,VALID,0,VALID,83.5908,VALID,366.052,VALID,22.6079,VALID,163,VALID,0.05,
2016-05-25, 08:13:04,VALID,918.047,VALID,0,VALID,82.2414,VALID,366.912,VALID,22.6096,VALID,153,VALID,0,
2016-05-25, 08:14:04,VALID,918.063,VALID,0,VALID,83.4154,VALID,364.87,VALID,22.7267,VALID,174,VALID,0,
2016-05-25, 08:15:04,VALID,918.067,VALID,0,VALID,80.6252,VALID,373.788,VALID,22.9007,VALID,180,VALID,0,
2016-05-25, 08:16:04,VALID,918.071,VALID,0,VALID,79.5199,VALID,373.036,VALID,23.0959,VALID,165,VALID,0,
2016-05-25, 08:17:04,VALID,918.059,VALID,0,VALID,77.37,VALID,377.118,VALID,23.0959,VALID,161,VALID,0,
2016-05-25, 08:18:04,VALID,918.053,VALID,0,VALID,77.3548,VALID,374.432,VALID,23.1935,VALID,145,VALID,0.0460938,
2016-05-25, 08:19:04,VALID,918.047,VALID,0,VALID,77.4539,VALID,382.168,VALID,23.1154,VALID,139,VALID,0.769531,
2016-05-25, 08:20:04,VALID,918.026,VALID,0,VALID,78.8337,VALID,383.565,VALID,23.0568,VALID,140,VALID,0.474609,
2016-05-25, 08:21:04,VALID,918.032,VALID,0,VALID,78.7041,VALID,381.201,VALID,23.0373,VALID,152,VALID,0.473437,
2016-05-25, 08:22:04,VALID,918.017,VALID,0,VALID,78.9633,VALID,389.689,VALID,23.0568,VALID,148,VALID,0.716797,
2016-05-25, 08:23:04,VALID,918.029,VALID,0,VALID,79.4665,VALID,391.408,VALID,23.1935,VALID,144,VALID,0,
2016-05-25, 08:24:04,VALID,918.021,VALID,0,VALID,77.9952,VALID,393.987,VALID,23.2911,VALID,143,VALID,0,
2016-05-25, 08:25:04,VALID,918.048,VALID,0,VALID,78.323,VALID,393.987,VALID,23.3869,VALID,145,VALID,0.00429688,
2016-05-25, 08:26:04,VALID,918.055,VALID,0,VALID,78.018,VALID,401.185,VALID,23.4845,VALID,123,VALID,0,
2016-05-25, 08:27:04,VALID,918.04,VALID,0,VALID,74.4274,VALID,409.995,VALID,23.6229,VALID,158,VALID,0,
2016-05-25, 08:28:04,VALID,918.048,VALID,0,VALID,78.9786,VALID,409.781,VALID,23.6406,VALID,151,VALID,0,
2016-05-25, 08:29:04,VALID,918.024,VALID,0,VALID,75.8149,VALID,414.938,VALID,23.6992,VALID,150,VALID,0,
2016-05-25, 08:30:04,VALID,918.02,VALID,0,VALID,77.675,VALID,413.648,VALID,23.8554,VALID,131,VALID,0,
2016-05-25, 08:31:04,VALID,918.062,VALID,0,VALID,77.3624,VALID,419.88,VALID,24.0701,VALID,139,VALID,0,
2016-05-25, 08:32:04,VALID,918.024,VALID,0,VALID,75.6014,VALID,417.839,VALID,24.2477,VALID,139,VALID,0,
2016-05-25, 08:33:04,VALID,918.004,VALID,0,VALID,76.8593,VALID,417.194,VALID,24.4997,VALID,48,VALID,0.375781,
2016-05-25, 08:34:04,VALID,918.038,VALID,0,VALID,75.1364,VALID,419.987,VALID,24.6968,VALID,59,VALID,0.0289063,
2016-05-25, 08:35:04,VALID,918.008,VALID,0,VALID,76.9813,VALID,423.318,VALID,24.7926,VALID,55,VALID,0.194531,
2016-05-25, 08:36:04,VALID,918.021,VALID,0,VALID,72.4148,VALID,423.963,VALID,24.7535,VALID,83,VALID,0,
2016-05-25, 08:37:04,VALID,918.028,VALID,0,VALID,74.435,VALID,426.434,VALID,24.6559,VALID,79,VALID,0,
2016-05-25, 08:38:04,VALID,918.025,VALID,0,VALID,76.3561,VALID,426.864,VALID,24.6754,VALID,83,VALID,0,
2016-05-25, 08:39:04,VALID,917.978,VALID,0,VALID,74.8924,VALID,426.112,VALID,24.8121,VALID,28,VALID,0.433203,
2016-05-25, 08:40:04,VALID,917.977,VALID,0,VALID,70.5623,VALID,429.872,VALID,24.9292,VALID,52,VALID,0.526953,
2016-05-25, 08:41:04,VALID,917.979,VALID,0,VALID,71.439,VALID,432.236,VALID,24.7907,VALID,81,VALID,0.0121094,
2016-05-25, 08:42:04,VALID,917.968,VALID,0,VALID,71.7363,VALID,435.889,VALID,24.8121,VALID,87,VALID,0,
2016-05-25, 08:43:04,VALID,917.982,VALID,0,VALID,69.6628,VALID,440.616,VALID,24.7926,VALID,127,VALID,0.659766,
2016-05-25, 08:44:04,VALID,917.96,VALID,0,VALID,72.7045,VALID,444.269,VALID,24.734,VALID,134,VALID,0,
2016-05-25, 08:45:04,VALID,917.984,VALID,0,VALID,72.3691,VALID,445.451,VALID,24.7144,VALID,147,VALID,0,
2016-05-25, 08:46:04,VALID,917.96,VALID,0,VALID,71.8964,VALID,443.302,VALID,24.6149,VALID,142,VALID,0,
2016-05-25, 08:47:04,VALID,917.975,VALID,0,VALID,72.6816,VALID,445.451,VALID,24.6168,VALID,124,VALID,0.0199219,
2016-05-25, 08:48:04,VALID,917.998,VALID,0,VALID,73.3144,VALID,447.17,VALID,24.5973,VALID,105,VALID,0,
2016-05-25, 08:49:04,VALID,917.986,VALID,0,VALID,74.5036,VALID,454.476,VALID,24.773,VALID,105,VALID,0,
2016-05-25, 08:50:04,VALID,918.017,VALID,0,VALID,73.2687,VALID,455.121,VALID,24.9078,VALID,104,VALID,0,
2016-05-25, 08:51:04,VALID,918.034,VALID,0,VALID,68.9386,VALID,460.063,VALID,25.1031,VALID,119,VALID,0,
2016-05-25, 08:52:04,VALID,918.057,VALID,0,VALID,66.4609,VALID,462.427,VALID,25.1812,VALID,129,VALID,0,
2016-05-25, 08:53:04,VALID,918.062,VALID,0,VALID,65.3327,VALID,452.542,VALID,25.3765,VALID,97,VALID,0,
2016-05-25, 08:54:04,VALID,918.09,VALID,0,VALID,64.6542,VALID,447.17,VALID,25.689,VALID,97,VALID,0,
2016-05-25, 08:55:04,VALID,918.081,VALID,0,VALID,67.0022,VALID,452.864,VALID,26.0601,VALID,96,VALID,0,
2016-05-25, 08:56:04,VALID,918.087,VALID,0,VALID,65.6147,VALID,457.484,VALID,26.2554,VALID,63,VALID,0,
2016-05-25, 08:57:04,VALID,918.069,VALID,0,VALID,65.4928,VALID,456.625,VALID,26.5485,VALID,63,VALID,0,
2016-05-25, 08:58:04,VALID,918.056,VALID,0,VALID,64.395,VALID,458.237,VALID,26.822,VALID,63,VALID,0,
2016-05-25, 08:59:04,VALID,918.059,VALID,0,VALID,63.4039,VALID,461.675,VALID,26.9197,VALID,85,VALID,0,
2016-05-25, 09:00:04,VALID,918.051,VALID,0,VALID,64.4484,VALID,468.873,VALID,26.6852,VALID,85,VALID,0,
2016-05-25, 09:01:04,VALID,918.063,VALID,0,VALID,63.7851,VALID,468.229,VALID,26.5855,VALID,116,VALID,0,
2016-05-25, 09:02:04,VALID,918.048,VALID,0,VALID,62.7255,VALID,477.361,VALID,26.5875,VALID,147,VALID,0,
2016-05-25, 09:03:04,VALID,918.052,VALID,0,VALID,61.7649,VALID,485.849,VALID,26.7047,VALID,147,VALID,0,
2016-05-25, 09:04:04,VALID,918.044,VALID,0,VALID,62.1995,VALID,488.535,VALID,26.7047,VALID,147,VALID,0,
2016-05-25, 09:05:04,VALID,918.08,VALID,0,VALID,64.5475,VALID,489.072,VALID,26.6461,VALID,104,VALID,0,
2016-05-25, 09:06:04,VALID,918.092,VALID,0,VALID,60.4003,VALID,488.535,VALID,26.6461,VALID,113,VALID,0,
2016-05-25, 09:07:04,VALID,918.097,VALID,0,VALID,64.9668,VALID,490.361,VALID,26.3706,VALID,143,VALID,0,
2016-05-25, 09:08:04,VALID,918.114,VALID,0,VALID,66.1712,VALID,492.94,VALID,26.2144,VALID,136,VALID,0,
2016-05-25, 09:09:04,VALID,918.131,VALID,0,VALID,66.095,VALID,497.13,VALID,26.2339,VALID,114,VALID,0,
2016-05-25, 09:10:04,VALID,918.158,VALID,0,VALID,64.1358,VALID,505.188,VALID,26.4508,VALID,88,VALID,0,
2016-05-25, 09:11:04,VALID,918.205,VALID,0,VALID,62.5654,VALID,511.957,VALID,26.6636,VALID,88,VALID,0,
2016-05-25, 09:12:04,VALID,918.17,VALID,0,VALID,61.6811,VALID,511.742,VALID,26.8415,VALID,88,VALID,0,
2016-05-25, 09:13:04,VALID,918.161,VALID,0,VALID,59.7066,VALID,515.61,VALID,26.9176,VALID,88,VALID,0,
2016-05-25, 09:14:04,VALID,918.186,VALID,0,VALID,60.4689,VALID,522.486,VALID,27.0153,VALID,38,VALID,0.179688,
2016-05-25, 09:15:04,VALID,918.2,VALID,0,VALID,59.1577,VALID,522.379,VALID,27.0544,VALID,28,VALID,0,
2016-05-25, 09:16:04,VALID,918.167,VALID,0,VALID,61.1474,VALID,527.214,VALID,27.0174,VALID,28,VALID,0,
2016-05-25, 09:17:04,VALID,918.194,VALID,0,VALID,62.2376,VALID,524.205,VALID,27.0955,VALID,28,VALID,0,
2016-05-25, 09:18:04,VALID,918.171,VALID,0,VALID,58.3801,VALID,526.677,VALID,27.0369,VALID,28,VALID,0,
2016-05-25, 09:19:04,VALID,918.188,VALID,0,VALID,59.6913,VALID,529.9,VALID,26.5855,VALID,28,VALID,0,
2016-05-25, 09:20:04,VALID,918.182,VALID,0,VALID,60.042,VALID,530.652,VALID,26.3902,VALID,28,VALID,0,
2016-05-25, 09:21:04,VALID,918.232,VALID,0,VALID,61.399,VALID,537.743,VALID,26.2339,VALID,28,VALID,0,
2016-05-25, 09:22:04,VALID,918.218,VALID,0,VALID,62.2299,VALID,528.61,VALID,26.1362,VALID,28,VALID,0,
2016-05-25, 09:23:04,VALID,918.227,VALID,0,VALID,60.6214,VALID,539.247,VALID,26.1558,VALID,28,VALID,0,
2016-05-25, 09:24:04,VALID,918.264,VALID,0,VALID,62.1232,VALID,544.619,VALID,26.0972,VALID,28,VALID,0,
2016-05-25, 09:25:04,VALID,918.232,VALID,0,VALID,62.3138,VALID,535.702,VALID,26.0776,VALID,28,VALID,0,
2016-05-25, 09:26:04,VALID,918.206,VALID,0,VALID,62.7331,VALID,550.421,VALID,25.9214,VALID,28,VALID,0,
2016-05-25, 09:27:04,VALID,918.192,VALID,0,VALID,64.0291,VALID,551.603,VALID,25.7651,VALID,28,VALID,0,
2016-05-25, 09:28:04,VALID,918.213,VALID,0,VALID,64.7304,VALID,553.214,VALID,25.7261,VALID,28,VALID,0,
2016-05-25, 09:29:04,VALID,918.22,VALID,0,VALID,64.0291,VALID,555.363,VALID,25.7241,VALID,28,VALID,0,
2016-05-25, 09:30:04,VALID,918.193,VALID,0,VALID,66.4914,VALID,561.702,VALID,25.8237,VALID,272,VALID,0,
2016-05-25, 09:31:04,VALID,918.203,VALID,0,VALID,64.9286,VALID,566.645,VALID,26.019,VALID,272,VALID,0,
2016-05-25, 09:32:04,VALID,918.186,VALID,0,VALID,62.4358,VALID,570.62,VALID,26.2534,VALID,263,VALID,0,
2016-05-25, 09:33:04,VALID,918.16,VALID,0,VALID,62.4434,VALID,576.959,VALID,26.3511,VALID,256,VALID,0,
2016-05-25, 09:34:04,VALID,918.162,VALID,0,VALID,63.1981,VALID,575.885,VALID,26.3511,VALID,258,VALID,0,
2016-05-25, 09:35:04,VALID,918.167,VALID,0,VALID,63.7546,VALID,564.818,VALID,26.2534,VALID,252,VALID,0,
2016-05-25, 09:36:04,VALID,918.158,VALID,0,VALID,63.7775,VALID,567.934,VALID,26.273,VALID,293,VALID,0,
2016-05-25, 09:37:04,VALID,918.171,VALID,0,VALID,64.2578,VALID,485.849,VALID,26.273,VALID,267,VALID,0,
2016-05-25, 09:38:04,VALID,918.144,VALID,0,VALID,64.4484,VALID,497.13,VALID,26.3316,VALID,338,VALID,0,
2016-05-25, 09:39:04,VALID,918.137,VALID,0,VALID,62.7788,VALID,562.884,VALID,26.3296,VALID,338,VALID,0,
2016-05-25, 09:40:04,VALID,918.138,VALID,0,VALID,63.8156,VALID,570.727,VALID,26.273,VALID,338,VALID,0,
2016-05-25, 09:41:04,VALID,918.11,VALID,0,VALID,62.2681,VALID,584.158,VALID,26.273,VALID,333,VALID,0,
2016-05-25, 09:42:04,VALID,918.082,VALID,0,VALID,62.5806,VALID,601.778,VALID,26.2925,VALID,333,VALID,0,
2016-05-25, 09:43:04,VALID,918.108,VALID,0,VALID,62.2528,VALID,566.537,VALID,26.4077,VALID,333,VALID,0,
2016-05-25, 09:44:04,VALID,918.079,VALID,0,VALID,63.1905,VALID,547.413,VALID,26.4663,VALID,333,VALID,0,
2016-05-25, 09:45:04,VALID,918.099,VALID,0,VALID,62.5349,VALID,552.462,VALID,26.3686,VALID,294,VALID,0,
2016-05-25, 09:46:04,VALID,918.073,VALID,0,VALID,65.0964,VALID,501.858,VALID,26.3686,VALID,301,VALID,0,
2016-05-25, 09:47:04,VALID,918.093,VALID,0,VALID,62.7941,VALID,491.866,VALID,26.4468,VALID,287,VALID,0,
2016-05-25, 09:48:04,VALID,918.097,VALID,0,VALID,62.9542,VALID,506.478,VALID,26.4077,VALID,283,VALID,0,
2016-05-25, 09:49:04,VALID,918.072,VALID,0,VALID,64.1815,VALID,574.81,VALID,26.4663,VALID,283,VALID,0,
2016-05-25, 09:50:04,VALID,918.054,VALID,0,VALID,64.5703,VALID,566,VALID,26.566,VALID,284,VALID,0,
2016-05-25, 09:51:04,VALID,918.06,VALID,0,VALID,63.8385,VALID,595.117,VALID,26.6832,VALID,283,VALID,0,
2016-05-25, 09:52:04,VALID,918.043,VALID,0,VALID,62.3138,VALID,596.298,VALID,26.603,VALID,283,VALID,0,
2016-05-25, 09:53:04,VALID,918.008,VALID,0,VALID,62.0927,VALID,597.265,VALID,26.5249,VALID,283,VALID,0,
2016-05-25, 09:54:04,VALID,918.031,VALID,0,VALID,61.7725,VALID,614.778,VALID,26.4858,VALID,283,VALID,0,
2016-05-25, 09:55:04,VALID,918,VALID,0,VALID,61.7039,VALID,619.935,VALID,26.5054,VALID,283,VALID,0,
2016-05-25, 09:56:04,VALID,918.028,VALID,0,VALID,62.39,VALID,623.481,VALID,26.5835,VALID,283,VALID,0,
2016-05-25, 09:57:04,VALID,918.04,VALID,0,VALID,62.5501,VALID,634.44,VALID,26.6226,VALID,284,VALID,0,
2016-05-25, 09:58:04,VALID,918.008,VALID,0,VALID,63.3277,VALID,629.498,VALID,26.6616,VALID,283,VALID,0,
2016-05-25, 09:59:04,VALID,918.015,VALID,0,VALID,62.5882,VALID,633.688,VALID,26.7007,VALID,283,VALID,0,
2016-05-25, 10:00:04,VALID,918.005,VALID,0,VALID,63.6327,VALID,643.358,VALID,26.7398,VALID,283,VALID,0,
2016-05-25, 10:01:04,VALID,918.046,VALID,0,VALID,64.151,VALID,630.787,VALID,26.7593,VALID,288,VALID,0,
2016-05-25, 10:02:04,VALID,918.042,VALID,0,VALID,61.1932,VALID,627.779,VALID,26.6812,VALID,255,VALID,0,
2016-05-25, 10:03:04,VALID,918.043,VALID,0,VALID,63.2134,VALID,640.779,VALID,26.6226,VALID,255,VALID,0,
2016-05-25, 10:04:04,VALID,918.036,VALID,0,VALID,63.2134,VALID,641.746,VALID,26.7202,VALID,257,VALID,0,
2016-05-25, 10:05:04,VALID,918.028,VALID,0,VALID,62.5273,VALID,646.259,VALID,26.8159,VALID,252,VALID,0,
2016-05-25, 10:06:04,VALID,918.008,VALID,0,VALID,61.9555,VALID,648.192,VALID,26.9546,VALID,253,VALID,0,
2016-05-25, 10:07:04,VALID,918.001,VALID,0,VALID,61.0864,VALID,644.539,VALID,26.9156,VALID,256,VALID,0,
2016-05-25, 10:08:04,VALID,917.981,VALID,0,VALID,62.0546,VALID,622.299,VALID,26.8374,VALID,294,VALID,0,
2016-05-25, 10:09:04,VALID,917.96,VALID,0,VALID,62.329,VALID,631.002,VALID,26.9351,VALID,359,VALID,0,
2016-05-25, 10:10:04,VALID,917.961,VALID,0,VALID,61.8183,VALID,641.746,VALID,27.1089,VALID,326,VALID,0,
2016-05-25, 10:11:04,VALID,917.992,VALID,0,VALID,59.7905,VALID,651.093,VALID,27.0914,VALID,307,VALID,0,
2016-05-25, 10:12:04,VALID,917.981,VALID,0,VALID,60.9568,VALID,633.58,VALID,27.1891,VALID,311,VALID,0,
2016-05-25, 10:13:04,VALID,917.994,VALID,0,VALID,60.5147,VALID,651.201,VALID,27.3454,VALID,306,VALID,0,
2016-05-25, 10:14:04,VALID,917.979,VALID,0,VALID,59.0434,VALID,660.763,VALID,27.3042,VALID,250,VALID,0,
2016-05-25, 10:15:04,VALID,917.965,VALID,0,VALID,59.0967,VALID,662.697,VALID,27.2065,VALID,250,VALID,0,
2016-05-25, 10:16:04,VALID,917.973,VALID,0,VALID,59.2111,VALID,662.267,VALID,27.3042,VALID,257,VALID,0,
2016-05-25, 10:17:04,VALID,917.97,VALID,0,VALID,59.0205,VALID,662.482,VALID,27.5017,VALID,355,VALID,0,
2016-05-25, 10:18:04,VALID,917.98,VALID,0,VALID,56.6344,VALID,657.862,VALID,27.6754,VALID,309,VALID,0,
2016-05-25, 10:19:04,VALID,917.98,VALID,0,VALID,58.2353,VALID,648.192,VALID,27.4821,VALID,264,VALID,0,
2016-05-25, 10:20:04,VALID,917.98,VALID,0,VALID,58.2505,VALID,647.44,VALID,27.441,VALID,273,VALID,0,
2016-05-25, 10:21:04,VALID,918,VALID,0,VALID,59.699,VALID,670.218,VALID,27.5387,VALID,292,VALID,0,
2016-05-25, 10:22:04,VALID,917.984,VALID,0,VALID,59.3102,VALID,621.654,VALID,27.734,VALID,264,VALID,0,
2016-05-25, 10:23:04,VALID,917.962,VALID,0,VALID,60.0725,VALID,635.837,VALID,27.734,VALID,261,VALID,0,
2016-05-25, 10:24:04,VALID,917.975,VALID,0,VALID,62.3443,VALID,671.4,VALID,27.8122,VALID,336,VALID,0,
2016-05-25, 10:25:04,VALID,917.944,VALID,0,VALID,59.8209,VALID,587.596,VALID,28.0271,VALID,2,VALID,0,
2016-05-25, 10:26:04,VALID,917.906,VALID,0,VALID,57.816,VALID,501.32,VALID,28.2225,VALID,314,VALID,0,
2016-05-25, 10:27:04,VALID,917.912,VALID,0,VALID,57.0308,VALID,587.381,VALID,28.0467,VALID,302,VALID,0,
2016-05-25, 10:28:04,VALID,917.906,VALID,0,VALID,57.7626,VALID,634.225,VALID,27.9099,VALID,304,VALID,0,
2016-05-25, 10:29:04,VALID,917.861,VALID,0,VALID,57.4348,VALID,725.443,VALID,27.9294,VALID,296,VALID,0,
2016-05-25, 10:30:04,VALID,917.847,VALID,0,VALID,57.7093,VALID,703.632,VALID,27.949,VALID,302,VALID,0,
2016-05-25, 10:31:04,VALID,917.831,VALID,0,VALID,56.5886,VALID,679.458,VALID,28.0858,VALID,265,VALID,0,
2016-05-25, 10:32:04,VALID,917.818,VALID,0,VALID,57.8617,VALID,672.689,VALID,27.9881,VALID,262,VALID,0,
2016-05-25, 10:33:04,VALID,917.81,VALID,0,VALID,59.0281,VALID,677.954,VALID,28.1053,VALID,17,VALID,0,
2016-05-25, 10:34:04,VALID,917.783,VALID,0,VALID,59.2339,VALID,718.137,VALID,28.2225,VALID,63,VALID,0,
2016-05-25, 10:35:04,VALID,917.799,VALID,0,VALID,59.2873,VALID,725.872,VALID,28.1856,VALID,66,VALID,0.360938,
2016-05-25, 10:36:04,VALID,917.766,VALID,0,VALID,58.8604,VALID,724.798,VALID,28.2812,VALID,73,VALID,0,
2016-05-25, 10:37:04,VALID,917.76,VALID,0,VALID,58.0599,VALID,741.989,VALID,28.3419,VALID,73,VALID,0,
2016-05-25, 10:38:04,VALID,917.731,VALID,0,VALID,57.7474,VALID,749.724,VALID,28.3202,VALID,179,VALID,0,
2016-05-25, 10:39:04,VALID,917.742,VALID,0,VALID,57.351,VALID,714.161,VALID,28.3202,VALID,222,VALID,0,
2016-05-25, 10:40:04,VALID,917.745,VALID,0,VALID,55.8796,VALID,725.335,VALID,28.1835,VALID,236,VALID,0,
2016-05-25, 10:41:04,VALID,917.72,VALID,0,VALID,57.5492,VALID,750.047,VALID,28.0271,VALID,267,VALID,0.329297,
2016-05-25, 10:42:04,VALID,917.723,VALID,0,VALID,58.0752,VALID,762.725,VALID,27.7145,VALID,288,VALID,0,
2016-05-25, 10:43:04,VALID,917.731,VALID,0,VALID,59.6685,VALID,772.502,VALID,27.4996,VALID,326,VALID,0,
2016-05-25, 10:44:04,VALID,917.745,VALID,0,VALID,59.92,VALID,773.254,VALID,27.6559,VALID,314,VALID,0,
2016-05-25, 10:45:04,VALID,917.666,VALID,0,VALID,59.5008,VALID,769.279,VALID,27.8708,VALID,296,VALID,0,
2016-05-25, 10:46:04,VALID,917.702,VALID,0,VALID,58.2429,VALID,760.683,VALID,28.0467,VALID,284,VALID,0,
2016-05-25, 10:47:04,VALID,917.698,VALID,0,VALID,59.9048,VALID,760.791,VALID,27.9881,VALID,251,VALID,0.364844,
2016-05-25, 10:48:04,VALID,917.69,VALID,0,VALID,56.8173,VALID,785.287,VALID,27.9881,VALID,205,VALID,0,
2016-05-25, 10:49:04,VALID,917.696,VALID,0,VALID,56.9317,VALID,787.651,VALID,28.1248,VALID,200,VALID,0,
2016-05-25, 10:50:04,VALID,917.671,VALID,0,VALID,55.8873,VALID,790.659,VALID,28.2225,VALID,184,VALID,0,
2016-05-25, 10:51:04,VALID,917.667,VALID,0,VALID,57.9837,VALID,789.907,VALID,28.2421,VALID,196,VALID,0,
2016-05-25, 10:52:04,VALID,917.689,VALID,0,VALID,60.8806,VALID,795.387,VALID,28.457,VALID,240,VALID,0,
2016-05-25, 10:53:04,VALID,917.714,VALID,0,VALID,57.8846,VALID,785.073,VALID,28.596,VALID,325,VALID,0,
2016-05-25, 10:54:04,VALID,917.702,VALID,0,VALID,55.1402,VALID,807.528,VALID,28.596,VALID,320,VALID,0,
2016-05-25, 10:55:04,VALID,917.719,VALID,0,VALID,56.9393,VALID,758.105,VALID,28.5765,VALID,313,VALID,0,
2016-05-25, 10:56:04,VALID,917.688,VALID,0,VALID,54.8962,VALID,669.466,VALID,28.4006,VALID,258,VALID,0.126953,
2016-05-25, 10:57:04,VALID,917.685,VALID,0,VALID,58.7384,VALID,709.756,VALID,28.2812,VALID,243,VALID,0,
2016-05-25, 10:58:04,VALID,917.645,VALID,0,VALID,57.8389,VALID,709.004,VALID,28.4397,VALID,250,VALID,0,
2016-05-25, 10:59:04,VALID,917.648,VALID,0,VALID,59.2263,VALID,455.658,VALID,28.5765,VALID,266,VALID,0,
2016-05-25, 11:00:04,VALID,917.636,VALID,0,VALID,57.3128,VALID,448.674,VALID,28.7307,VALID,16,VALID,0,
2016-05-25, 11:01:04,VALID,917.639,VALID,0,VALID,54.881,VALID,554.934,VALID,28.9674,VALID,328,VALID,0,
2016-05-25, 11:02:04,VALID,917.612,VALID,0,VALID,54.8581,VALID,679.565,VALID,29.1042,VALID,328,VALID,0,
2016-05-25, 11:03:04,VALID,917.589,VALID,0,VALID,57.4653,VALID,746.609,VALID,28.9457,VALID,328,VALID,0,
2016-05-25, 11:04:04,VALID,917.587,VALID,0,VALID,56.6725,VALID,752.84,VALID,28.7111,VALID,328,VALID,0,
2016-05-25, 11:05:04,VALID,917.593,VALID,0,VALID,55.75,VALID,837.934,VALID,28.7524,VALID,328,VALID,0,
2016-05-25, 11:06:04,VALID,917.572,VALID,0,VALID,53.9662,VALID,839.653,VALID,28.5765,VALID,260,VALID,0.256641,
2016-05-25, 11:07:04,VALID,917.598,VALID,0,VALID,54.9267,VALID,837.074,VALID,28.418,VALID,185,VALID,0.000390625,
2016-05-25, 11:08:04,VALID,917.571,VALID,0,VALID,54.6599,VALID,839.867,VALID,28.6351,VALID,248,VALID,0,